TimeCST,TemperatureF,Dew PointF,Humidity,Sea Level PressureIn,VisibilityMPH,Wind Direction,Wind SpeedMPH,Gust SpeedMPH,PrecipitationIn,Events,Conditions,WindDirDegrees,DateUTC
12:53 AM,7.0,1.0,77,30.34,10.0,SE,3.5,-,N/A,,Clear,140,2014-01-29 06:53:00
1:53 AM,5.0,-0.9,76,30.33,10.0,Calm,Calm,-,N/A,,Clear,0,2014-01-29 07:53:00
2:53 AM,8.1,1.9,76,30.32,10.0,South,3.5,-,N/A,,Clear,170,2014-01-29 08:53:00
3:53 AM,5.0,-0.0,80,30.30,10.0,SSE,3.5,-,N/A,,Clear,160,2014-01-29 09:53:00
4:53 AM,6.1,-0.0,76,30.29,10.0,SSE,3.5,-,N/A,,Clear,160,2014-01-29 10:53:00
5:53 AM,6.1,1.0,80,30.27,10.0,Calm,Calm,-,N/A,,Clear,0,2014-01-29 11:53:00
6:53 AM,6.1,-0.9,73,30.27,10.0,SSE,5.8,-,N/A,,Clear,160,2014-01-29 12:53:00
7:53 AM,8.1,-0.0,70,30.26,10.0,SSE,5.8,-,N/A,,Clear,160,2014-01-29 13:53:00
8:53 AM,16.0,6.1,65,30.25,10.0,SSW,9.2,-,N/A,,Clear,200,2014-01-29 14:53:00
9:53 AM,21.9,9.0,58,30.23,10.0,SSW,12.7,-,N/A,,Clear,210,2014-01-29 15:53:00
10:53 AM,28.9,10.9,47,30.22,10.0,SW,13.8,-,N/A,,Clear,220,2014-01-29 16:53:00
11:53 AM,35.1,12.0,39,30.18,10.0,SSW,18.4,24.2,N/A,,Clear,210,2014-01-29 17:53:00
12:53 PM,39.0,10.9,32,30.13,10.0,SSW,18.4,25.3,N/A,,Clear,200,2014-01-29 18:53:00
1:53 PM,42.1,10.9,28,30.08,10.0,South,18.4,-,N/A,,Clear,190,2014-01-29 19:53:00
2:53 PM,43.0,10.0,26,30.04,10.0,SSW,21.9,29.9,N/A,,Clear,200,2014-01-29 20:53:00
3:53 PM,44.1,10.0,25,30.00,10.0,South,20.7,29.9,N/A,,Clear,190,2014-01-29 21:53:00
4:53 PM,41.0,10.0,28,29.98,10.0,South,15.0,-,N/A,,Clear,180,2014-01-29 22:53:00
5:53 PM,37.9,10.0,32,29.96,10.0,South,15.0,-,N/A,,Clear,180,2014-01-29 23:53:00
6:53 PM,37.0,10.0,33,29.94,10.0,South,16.1,-,N/A,,Clear,180,2014-01-30 00:53:00
7:53 PM,37.0,10.0,33,29.92,10.0,South,17.3,-,N/A,,Clear,180,2014-01-30 01:53:00
8:53 PM,37.0,10.0,33,29.90,10.0,South,19.6,28.8,N/A,,Clear,190,2014-01-30 02:53:00
9:53 PM,35.1,10.0,35,29.88,10.0,South,20.7,-,N/A,,Clear,190,2014-01-30 03:53:00
10:53 PM,34.0,10.0,37,29.86,10.0,South,17.3,-,N/A,,Clear,190,2014-01-30 04:53:00
11:53 PM,34.0,10.0,37,29.83,10.0,South,20.7,-,N/A,,Clear,190,2014-01-30 05:53:00